Location: Newark
(51.3318°N, 0.0053°E)
Time: 03:02:21
(UTC+00:00)

CUBEBUG 2 - Pass Details

Date: 07 July 2022
Orbit: 584 x 692 km, 97.7° (Epoch: 14 August)

Event Time Altitude Azimuth Distance (km) Brightness Sun altitude
Rises 02:54:37 0° 16° (NNE) 2,850 ? -7.2°
Reaches altitude 10° 02:56:48 10° 20° (NNE) 1,954 ? -7.0°
Maximum altitude 03:01:00 62° 101° (E) 690 ? -6.6°
Drops below altitude 10° 03:05:18 10° 183° (S) 1,996 ? -6.2°
Enters shadow 03:07:05 - 186° (S) 2,731 ? -6.0°
